| time (UTC) | temp F | wind direction | speed knots | gust knots | rain 1hr in | rain 24hr in | rain mn in | humidity % | barometer mb |
| 20260509053117 | 53 | 0 | 0.0 | 0.9 | 0.00 | 0.00 | 0.00 | 74 | 1020.5 |
| 20260509051611 | 53 | 0 | 0.0 | 0.9 | 0.00 | 0.00 | 0.00 | 74 | 1020.4 |
| 20260509044550 | 52 | 0 | 0.0 | 2.6 | 0.00 | 0.00 | 0.00 | 72 | 1020.2 |
| 20260509043055 | 52 | 346 | 0.0 | 2.6 | 0.00 | 0.00 | 0.00 | 72 | 1020.1 |
| 20260509041551 | 52 | 0 | 0.0 | 0.9 | 0.00 | 0.00 | 0.00 | 71 | 1020.1 |
| 20260509040106 | 52 | 0 | 0.0 | 1.7 | 0.00 | 0.00 | 0.00 | 70 | 1020.2 |
| 20260509034555 | 52 | 320 | 2.6 | 7.0 | 0.00 | 0.00 | 0.00 | 70 | 1020.0 |
| 20260509033114 | 52 | 319 | 3.5 | 5.2 | 0.00 | 0.00 | 0.00 | 72 | 1020.1 |
| 20260509031558 | 51 | 0 | 0.0 | 1.7 | 0.00 | 0.00 | 0.00 | 73 | 1020.0 |
| 20260509030055 | 51 | 0 | 0.0 | 0.0 | 0.00 | 0.00 | 0.00 | 75 | 1020.1 |
| 20260509024601 | 51 | 355 | 1.7 | 4.3 | 0.00 | 0.00 | 0.00 | 75 | 1020.0 |
| 20260509023050 | 51 | 346 | 0.9 | 1.7 | 0.00 | 0.00 | 0.00 | 76 | 1020.0 |
| 20260509021553 | 51 | 0 | 0.0 | 0.9 | 0.00 | 0.00 | 0.00 | 76 | 1020.1 |
| 20260509020105 | 51 | 0 | 0.0 | 3.5 | 0.00 | 0.00 | 0.00 | 76 | 1019.9 |
| 20260509014550 | 51 | 11 | 0.9 | 2.6 | 0.00 | 0.00 | 0.00 | 76 | 1020.0 |
| 20260509013056 | 51 | 0 | 0.0 | 1.7 | 0.00 | 0.00 | 0.00 | 75 | 1020.0 |
| 20260509011558 | 52 | 200 | 0.0 | 0.9 | 0.00 | 0.00 | 0.00 | 74 | 1020.0 |
| 20260509010049 | 52 | 0 | 0.0 | 0.9 | 0.00 | 0.00 | 0.00 | 74 | 1020.0 |
| 20260509004552 | 52 | 330 | 1.7 | 3.5 | 0.00 | 0.00 | 0.00 | 74 | 1019.9 |
| 20260509003056 | 52 | 0 | 0.0 | 1.7 | 0.00 | 0.00 | 0.00 | 72 | 1020.0 |
| 20260509001551 | 53 | 0 | 0.0 | 0.0 | 0.00 | 0.00 | 0.00 | 71 | 1019.9 |
| 20260509000051 | 53 | 0 | 0.0 | 3.5 | 0.00 | 0.00 | 0.00 | 71 | 1019.8 |
| 20260508234550 | 53 | 322 | 1.7 | 4.3 | 0.00 | 0.00 | 0.00 | 70 | 1019.7 |
| 20260508233058 | 52 | 355 | 2.6 | 4.3 | 0.00 | 0.00 | 0.00 | 68 | 1019.7 |
| 20260508231556 | 52 | 330 | 2.6 | 4.3 | 0.00 | 0.00 | 0.00 | 69 | 1019.8 |
| 20260508230055 | 53 | 0 | 0.0 | 4.3 | 0.00 | 0.00 | 0.00 | 70 | 1019.8 |
| 20260508224555 | 53 | 360 | 3.5 | 4.3 | 0.00 | 0.00 | 0.00 | 70 | 1019.7 |
| 20260508223053 | 52 | 21 | 0.9 | 2.6 | 0.00 | 0.00 | 0.00 | 72 | 1019.9 |
| 20260508221555 | 52 | 312 | 0.0 | 0.9 | 0.00 | 0.00 | 0.00 | 73 | 1019.9 |
| 20260508214554 | 53 | 0 | 0.9 | 2.6 | 0.00 | 0.00 | 0.00 | 73 | 1019.8 |
| 20260508213100 | 53 | 0 | 0.0 | 0.9 | 0.00 | 0.00 | 0.00 | 73 | 1019.7 |
| 20260508211556 | 53 | 0 | 0.0 | 4.3 | 0.00 | 0.00 | 0.00 | 72 | 1019.6 |
| 20260508210054 | 53 | 355 | 2.6 | 5.2 | 0.00 | 0.00 | 0.00 | 73 | 1019.5 |
| 20260508204554 | 53 | 355 | 0.0 | 2.6 | 0.00 | 0.00 | 0.00 | 71 | 1019.6 |
| 20260508203054 | 54 | 0 | 0.0 | 4.3 | 0.00 | 0.00 | 0.00 | 69 | 1019.6 |
| 20260508201553 | 54 | 349 | 2.6 | 4.3 | 0.00 | 0.00 | 0.00 | 68 | 1019.6 |
| 20260508200053 | 54 | 355 | 2.6 | 4.3 | 0.00 | 0.00 | 0.00 | 67 | 1019.6 |
| 20260508194604 | 54 | 25 | 2.6 | 6.1 | 0.00 | 0.00 | 0.00 | 67 | 1019.4 |
| 20260508193114 | 54 | 333 | 3.5 | 6.1 | 0.00 | 0.00 | 0.00 | 66 | 1019.2 |
| 20260508191604 | 54 | 24 | 2.6 | 7.8 | 0.00 | 0.00 | 0.00 | 66 | 1019.1 |
| 20260508190109 | 54 | 336 | 3.5 | 5.2 | 0.00 | 0.00 | 0.00 | 70 | 1019.0 |
| 20260508184555 | 55 | 344 | 3.5 | 5.2 | 0.00 | 0.00 | 0.00 | 75 | 1018.8 |
| 20260508183058 | 56 | 224 | 2.6 | 4.3 | 0.00 | 0.00 | 0.00 | 75 | 1018.6 |
| 20260508181558 | 59 | 0 | 0.0 | 1.7 | 0.00 | 0.00 | 0.00 | 72 | 1018.6 |
| 20260508174553 | 61 | 0 | 0.0 | 0.9 | 0.00 | 0.00 | 0.00 | 69 | 1018.3 |
| 20260508173055 | 61 | 0 | 0.0 | 2.6 | 0.00 | 0.00 | 0.00 | 69 | 1018.2 |
| 20260508171555 | 61 | 112 | 0.0 | 2.6 | 0.00 | 0.00 | 0.00 | 69 | 1018.2 |
| 20260508170059 | 61 | 0 | 0.0 | 2.6 | 0.00 | 0.00 | 0.00 | 69 | 1018.2 |
| 20260508164556 | 61 | 0 | 0.9 | 2.6 | 0.00 | 0.00 | 0.00 | 70 | 1018.0 |
| 20260508163103 | 61 | 123 | 0.9 | 4.3 | 0.00 | 0.00 | 0.00 | 70 | 1018.1 |
| 20260508161558 | 62 | 0 | 0.0 | 6.1 | 0.00 | 0.00 | 0.00 | 69 | 1018.0 |
| 20260508160051 | 62 | 20 | 1.7 | 5.2 | 0.00 | 0.00 | 0.00 | 69 | 1017.9 |
| 20260508154555 | 62 | 282 | 1.7 | 8.7 | 0.00 | 0.00 | 0.00 | 68 | 1017.8 |
| 20260508153104 | 62 | 115 | 0.0 | 3.5 | 0.00 | 0.00 | 0.00 | 67 | 1017.7 |
| 20260508151551 | 63 | 26 | 0.9 | 5.2 | 0.00 | 0.00 | 0.00 | 66 | 1017.6 |
| 20260508150054 | 63 | 126 | 0.0 | 3.5 | 0.00 | 0.00 | 0.00 | 66 | 1017.8 |
| 20260508144553 | 64 | 157 | 0.9 | 4.3 | 0.00 | 0.00 | 0.00 | 64 | 1017.9 |
| 20260508143115 | 64 | 143 | 0.9 | 7.8 | 0.00 | 0.00 | 0.00 | 62 | 1017.9 |
| 20260508141558 | 64 | 341 | 0.9 | 5.2 | 0.00 | 0.00 | 0.00 | 62 | 1017.9 |
| 20260508134553 | 63 | 99 | 2.6 | 6.1 | 0.00 | 0.00 | 0.00 | 62 | 1018.0 |
| 20260508133057 | 63 | 202 | 1.7 | 7.8 | 0.00 | 0.00 | 0.00 | 62 | 1018.0 |
| 20260508131550 | 63 | 104 | 1.7 | 6.1 | 0.00 | 0.00 | 0.00 | 64 | 1018.1 |
| 20260508130051 | 63 | 43 | 0.9 | 4.3 | 0.00 | 0.00 | 0.00 | 63 | 1018.1 |
| 20260508124551 | 63 | 100 | 1.7 | 7.0 | 0.00 | 0.00 | 0.00 | 62 | 1018.1 |
| 20260508123055 | 63 | 0 | 0.9 | 7.0 | 0.00 | 0.00 | 0.00 | 61 | 1018.2 |
| 20260508121554 | 63 | 0 | 2.6 | 8.7 | 0.00 | 0.00 | 0.00 | 61 | 1018.3 |
| 20260508120101 | 63 | 65 | 0.9 | 7.0 | 0.00 | 0.00 | 0.00 | 62 | 1018.3 |
| 20260508114603 | 62 | 360 | 1.7 | 7.0 | 0.00 | 0.00 | 0.00 | 62 | 1018.4 |
| 20260508113104 | 62 | 338 | 0.9 | 7.8 | 0.00 | 0.00 | 0.00 | 63 | 1018.3 |
| 20260508111601 | 62 | 92 | 1.7 | 7.0 | 0.00 | 0.00 | 0.00 | 63 | 1018.4 |
| 20260508104554 | 62 | 107 | 0.9 | 8.7 | 0.00 | 0.00 | 0.00 | 63 | 1018.4 |
| 20260508103057 | 62 | 0 | 0.0 | 7.8 | 0.00 | 0.00 | 0.00 | 64 | 1018.6 |
| 20260508101555 | 62 | 85 | 0.0 | 7.8 | 0.00 | 0.00 | 0.00 | 61 | 1018.5 |
| 20260508100123 | 61 | 327 | 5.2 | 10.4 | 0.00 | 0.00 | 0.00 | 63 | 1018.6 |
| 20260508094553 | 61 | 92 | 0.9 | 8.7 | 0.00 | 0.00 | 0.00 | 66 | 1018.5 |
| 20260508093053 | 60 | 89 | 1.7 | 7.0 | 0.00 | 0.00 | 0.00 | 67 | 1018.5 |
| 20260508091607 | 60 | 334 | 0.0 | 4.3 | 0.00 | 0.00 | 0.00 | 72 | 1018.5 |
| 20260508090052 | 59 | 0 | 0.0 | 5.2 | 0.00 | 0.00 | 0.00 | 73 | 1018.5 |
| 20260508084552 | 59 | 72 | 0.0 | 2.6 | 0.00 | 0.00 | 0.00 | 74 | 1018.5 |
| 20260508083052 | 58 | 0 | 2.6 | 7.8 | 0.00 | 0.00 | 0.00 | 73 | 1018.5 |
| 20260508081611 | 59 | 331 | 0.9 | 10.4 | 0.00 | 0.00 | 0.00 | 74 | 1018.4 |
| 20260508074556 | 57 | 185 | 1.7 | 7.0 | 0.00 | 0.00 | 0.00 | 78 | 1018.3 |
| 20260508073052 | 59 | 38 | 2.6 | 7.0 | 0.00 | 0.00 | 0.00 | 72 | 1018.1 |
| 20260508071553 | 59 | 125 | 0.0 | 3.5 | 0.00 | 0.00 | 0.00 | 72 | 1017.7 |
| 20260508070059 | 58 | 0 | 0.9 | 2.6 | 0.00 | 0.00 | 0.00 | 73 | 1017.8 |
| 20260508064558 | 56 | 0 | 0.0 | 3.5 | 0.00 | 0.00 | 0.00 | 77 | 1017.8 |
| 20260508063059 | 55 | 0 | 0.0 | 3.5 | 0.00 | 0.00 | 0.00 | 79 | 1017.7 |
| 20260508061604 | 54 | 0 | 0.0 | 2.6 | 0.00 | 0.00 | 0.00 | 79 | 1017.5 |
| 20260508060111 | 53 | 0 | 0.0 | 0.9 | 0.00 | 0.00 | 0.00 | 79 | 1017.5 |
| 20260508054638 | 53 | 0 | 0.0 | 0.9 | 0.00 | 0.00 | 0.00 | 80 | 1017.4 |